FW4251 Weather Reports


Display with metric or nautical units.
time (UTC)temp
F
wind
direction
speed
MPH
gust
MPH
rain 1hr
in
rain 24hr
in
rain mn
in
humidity
%
barometer
mb
20260503052018 40 360 1.0 3.0 0.00 0.00 0.00 72 1012.1
20260503051520 40 360 0.0 3.0 0.00 0.00 0.00 73 1012.2
20260503051019 40 360 0.0 3.0 0.00 0.00 0.00 73 1012.2
20260503050516 40 360 0.0 2.0 0.00 0.00 0.00 72 1012.3
20260503050016 40 360 0.0 2.0 0.00 0.00 0.00 73 1012.2
20260503045515 40 360 0.0 3.0 0.00 0.00 0.00 73 1012.3
20260503045016 40 360 0.0 3.0 0.00 0.00 0.00 71 1012.3
20260503044513 40 360 0.0 2.0 0.00 0.00 0.00 72 1012.3
20260503044012 41 360 0.0 2.0 0.00 0.00 0.00 70 1012.2
20260503043513 40 360 0.0 2.0 0.00 0.00 0.00 70 1012.3
20260503043013 41 360 0.0 2.0 0.00 0.00 0.00 69 1012.4
20260503042510 41 360 0.0 0.0 0.00 0.00 0.00 69 1012.3
20260503042011 41 360 0.0 0.0 0.00 0.00 0.00 69 1012.3
20260503041509 41 360 0.0 0.0 0.00 0.00 0.00 69 1012.4
20260503041009 41 360 0.0 0.0 0.00 0.00 0.00 68 1012.3
20260503040508 41 360 0.0 1.0 0.00 0.00 0.00 67 1012.3
20260503040012 41 360 0.0 1.0 0.00 0.00 0.00 67 1012.2
20260503035505 42 360 0.0 4.0 0.00 0.00 0.00 66 1012.3
20260503035005 42 360 0.0 4.0 0.00 0.00 0.00 66 1012.2
20260503034505 42 360 0.0 1.0 0.00 0.00 0.00 66 1012.2
20260503034005 42 360 0.0 1.0 0.00 0.00 0.00 66 1012.2
20260503033504 42 360 0.0 2.0 0.00 0.00 0.00 66 1012.2
20260503033003 43 360 0.0 3.0 0.00 0.00 0.00 65 1012.2
20260503032501 43 360 0.0 3.0 0.00 0.00 0.00 65 1012.3
20260503032001 43 360 0.0 2.0 0.00 0.00 0.00 63 1012.3
20260503031501 43 360 0.0 4.0 0.00 0.00 0.00 64 1012.3
20260503031101 44 360 1.0 4.0 0.00 0.00 0.00 63 1012.3
20260503030600 44 360 1.0 4.0 0.00 0.00 0.00 63 1012.2
20260503030059 44 360 1.0 3.0 0.00 0.00 0.00 61 1012.3
20260503025559 44 360 1.0 4.0 0.00 0.00 0.00 59 1012.4
20260503025102 43 360 1.0 4.0 0.00 0.00 0.00 62 1012.4
20260503024612 43 360 0.0 1.0 0.00 0.00 0.00 61 1012.4
20260503024056 44 360 0.0 2.0 0.00 0.00 0.00 61 1012.4
20260503023555 44 360 0.0 2.0 0.00 0.00 0.00 61 1012.4
20260503023055 44 360 0.0 1.0 0.00 0.00 0.00 60 1012.5
20260503022553 44 360 0.0 2.0 0.00 0.00 0.00 59 1012.5
20260503022057 45 360 0.0 2.0 0.00 0.00 0.00 60 1012.4
20260503021553 45 360 0.0 2.0 0.00 0.00 0.00 58 1012.5
20260503021051 46 360 0.0 3.0 0.00 0.00 0.00 57 1012.4
20260503020551 46 360 0.0 3.0 0.00 0.00 0.00 55 1012.5
20260503020051 47 360 0.0 3.0 0.00 0.00 0.00 54 1012.5
20260503015550 47 360 0.0 5.0 0.00 0.00 0.00 54 1012.5
20260503015054 47 360 1.0 5.0 0.00 0.00 0.00 52 1012.5
20260503014604 47 360 0.0 3.0 0.00 0.00 0.00 51 1012.4
20260503014050 48 360 0.0 5.0 0.00 0.00 0.00 48 1012.3
20260503013551 48 360 1.0 5.0 0.00 0.00 0.00 49 1012.3
20260503013050 48 360 1.0 4.0 0.00 0.00 0.00 49 1012.3
20260503012548 48 360 1.0 4.0 0.00 0.00 0.00 50 1012.3
20260503012048 48 360 1.0 4.0 0.00 0.00 0.00 49 1012.2
20260503011605 48 360 0.0 4.0 0.00 0.00 0.00 50 1012.3
20260503011052 49 360 1.0 4.0 0.00 0.00 0.00 48 1012.3
20260503010549 49 360 0.0 4.0 0.00 0.00 0.00 48 1012.3
20260503010049 49 360 1.0 6.0 0.00 0.00 0.00 48 1012.2
20260503005552 49 360 1.0 8.0 0.00 0.00 0.00 46 1012.1
20260503005048 49 360 4.0 8.0 0.00 0.00 0.00 47 1012.0
20260503004549 48 360 1.0 4.0 0.00 0.00 0.00 49 1011.8
20260503004048 49 360 0.0 3.0 0.00 0.00 0.00 48 1011.7
20260503003549 49 360 1.0 3.0 0.00 0.00 0.00 47 1011.6
20260503003050 49 360 0.0 2.0 0.00 0.00 0.00 51 1011.7
20260503002547 50 360 0.0 3.0 0.00 0.00 0.00 49 1011.7
20260503002047 50 360 0.0 2.0 0.00 0.00 0.00 49 1011.6
20260503001547 50 360 0.0 2.0 0.00 0.00 0.00 48 1011.6
20260503001048 51 360 0.0 3.0 0.00 0.00 0.00 46 1011.5
20260503000547 51 360 1.0 3.0 0.00 0.00 0.00 47 1011.4
20260503000047 51 324 0.0 4.0 0.00 0.00 0.00 42 1011.3
20260502235546 51 325 1.0 3.0 0.00 0.00 0.00 42 1011.4
20260502235146 52 317 0.0 4.0 0.00 0.00 0.00 45 1011.3
20260502234607 52 315 1.0 3.0 0.00 0.00 0.00 43 1011.4
20260502234045 52 315 0.0 5.0 0.00 0.00 0.00 42 1011.2
20260502233545 53 315 1.0 6.0 0.00 0.00 0.00 40 1011.2
20260502233045 53 338 2.0 6.0 0.00 0.00 0.00 40 1011.2
20260502232543 53 349 2.0 8.0 0.00 0.00 0.00 40 1011.2
20260502232044 53 330 3.0 8.0 0.00 0.00 0.00 40 1011.2
20260502231544 53 301 3.0 9.0 0.00 0.00 0.00 40 1011.2
20260502231043 53 315 3.0 10.0 0.00 0.00 0.00 40 1011.1
20260502230543 53 340 5.0 10.0 0.00 0.00 0.00 41 1011.1
20260502230043 53 327 3.0 8.0 0.00 0.00 0.00 42 1011.1
20260502225542 53 347 1.0 4.0 0.00 0.00 0.00 43 1011.1
20260502225045 53 347 1.0 5.0 0.00 0.00 0.00 43 1011.1
20260502224542 53 348 3.0 5.0 0.00 0.00 0.00 43 1011.0
20260502224042 53 349 0.0 4.0 0.00 0.00 0.00 45 1011.0
20260502223544 54 355 2.0 4.0 0.00 0.00 0.00 43 1010.8
20260502223056 54 326 0.0 6.0 0.00 0.00 0.00 43 1010.9
20260502222541 54 326 3.0 8.0 0.00 0.00 0.00 42 1010.8
20260502222041 54 331 3.0 9.0 0.00 0.00 0.00 41 1010.8
20260502221541 54 318 4.0 9.0 0.00 0.00 0.00 41 1010.9
20260502221040 55 327 1.0 5.0 0.00 0.00 0.00 41 1010.8
20260502220540 55 342 1.0 8.0 0.00 0.00 0.00 44 1010.8
20260502220040 55 338 2.0 4.0 0.00 0.00 0.00 44 1010.7
20260502215540 55 340 0.0 5.0 0.00 0.00 0.00 44 1010.5
20260502215039 55 340 2.0 6.0 0.00 0.00 0.00 41 1010.5
20260502214540 55 346 2.0 5.0 0.00 0.00 0.00 41 1010.6
20260502214039 55 311 1.0 5.0 0.00 0.00 0.00 42 1010.5
20260502213538 55 295 2.0 6.0 0.00 0.00 0.00 45 1010.5
20260502213045 56 17 0.0 4.0 0.00 0.00 0.00 44 1010.4
20260502212540 56 17 1.0 4.0 0.00 0.00 0.00 45 1010.5
20260502212038 56 11 1.0 3.0 0.00 0.00 0.00 43 1010.3
20260502211539 56 11 1.0 3.0 0.00 0.00 0.00 47 1010.3
20260502211038 56 11 0.0 3.0 0.00 0.00 0.00 46 1010.2
20260502210537 56 11 0.0 1.0 0.00 0.00 0.00 53 1010.3
20260502210040 56 11 0.0 2.0 0.00 0.00 0.00 47 1010.3
20260502205536 56 11 0.0 4.0 0.00 0.00 0.00 45 1010.3
20260502205036 57 11 0.0 4.0 0.00 0.00 0.00 45 1010.2
20260502204536 57 339 2.0 6.0 0.00 0.00 0.00 43 1010.2
20260502204036 57 340 2.0 6.0 0.00 0.00 0.00 42 1010.1
20260502203538 57 28 2.0 4.0 0.00 0.00 0.00 42 1010.2
20260502203044 58 29 2.0 4.0 0.00 0.00 0.00 41 1010.2
20260502202534 58 77 0.0 4.0 0.00 0.00 0.00 41 1010.3
20260502202033 58 80 0.0 3.0 0.00 0.00 0.00 47 1010.3
20260502201538 57 80 0.0 4.0 0.00 0.00 0.00 47 1010.4
20260502201033 57 85 0.0 4.0 0.00 0.00 0.00 48 1010.4
20260502200532 57 85 1.0 3.0 0.00 0.00 0.00 43 1010.5
20260502200032 57 84 0.0 4.0 0.00 0.00 0.00 44 1010.6
20260502195531 57 84 1.0 4.0 0.00 0.00 0.00 45 1010.6
20260502195030 57 84 1.0 4.0 0.00 0.00 0.00 46 1010.6
20260502194531 57 85 1.0 4.0 0.00 0.00 0.00 47 1010.7
20260502194030 58 90 2.0 5.0 0.00 0.00 0.00 45 1010.7
20260502193532 58 32 1.0 5.0 0.00 0.00 0.00 46 1010.8
20260502193029 58 349 2.0 5.0 0.00 0.00 0.00 47 1010.8
20260502192527 58 319 1.0 4.0 0.00 0.00 0.00 52 1011.0
20260502192027 57 220 1.0 4.0 0.00 0.00 0.00 52 1010.9
20260502191529 57 212 1.0 3.0 0.00 0.00 0.00 50 1011.0
20260502191026 56 131 0.0 3.0 0.00 0.00 0.00 55 1011.1
20260502190526 56 131 0.0 4.0 0.00 0.00 0.00 52 1011.1
20260502190029 56 131 1.0 4.0 0.00 0.00 0.00 52 1011.1
20260502185529 58 89 1.0 6.0 0.00 0.00 0.00 58 1011.1
20260502185025 62 90 3.0 6.0 0.00 0.00 0.00 57 1011.1
20260502184528 59 84 1.0 4.0 0.00 0.00 0.00 54 1011.0
20260502184023 57 84 2.0 6.0 0.00 0.00 0.00 56 1011.1
20260502183523 57 91 2.0 7.0 0.00 0.00 0.00 58 1011.2
20260502183028 56 86 0.0 4.0 0.00 0.00 0.00 60 1011.2
20260502182522 56 86 1.0 4.0 0.00 0.00 0.00 55 1011.1
20260502182021 56 86 2.0 4.0 0.00 0.00 0.00 59 1011.1
20260502181523 56 86 1.0 4.0 0.00 0.00 0.00 57 1011.2
20260502181021 56 86 0.0 6.0 0.00 0.00 0.00 59 1011.1
20260502180521 56 86 1.0 7.0 0.00 0.00 0.00 58 1011.2
20260502170519 57 53 3.0 6.0 0.00 0.00 0.00 62 1011.6
20260502164014 57 88 3.0 5.0 0.00 0.00 0.00 70 1011.7
20260502163514 56 196 2.0 5.0 0.00 0.00 0.00 67 1011.8
20260502163013 57 143 1.0 7.0 0.00 0.00 0.00 75 1011.9
20260502162513 54 221 4.0 7.0 0.00 0.00 0.00 69 1011.9
20260502162012 54 91 0.0 6.0 0.00 0.00 0.00 75 1011.9
20260502161511 54 91 1.0 7.0 0.00 0.00 0.00 72 1012.0
20260502161012 53 86 2.0 5.0 0.00 0.00 0.00 75 1012.2
20260502160513 55 119 1.0 4.0 0.00 0.00 0.00 71 1012.0
20260502152009 54 92 3.0 9.0 0.00 0.00 0.00 81 1012.4
20260502151506 53 85 2.0 9.0 0.00 0.00 0.00 84 1012.5
20260502151005 53 84 3.0 7.0 0.00 0.00 0.00 80 1012.6
20260502150504 53 98 3.0 7.0 0.00 0.00 0.00 84 1012.5
20260502130552 46 360 2.0 8.0 0.00 0.00 0.00 91 1012.3
20260502123549 47 360 1.0 6.0 0.00 0.00 0.00 94 1012.2
20260502123048 47 360 2.0 4.0 0.00 0.00 0.00 94 1012.2
20260502122548 47 360 1.0 3.0 0.00 0.00 0.00 94 1012.2
20260502122047 47 360 0.0 4.0 0.00 0.00 0.00 95 1012.1
20260502121547 47 360 2.0 4.0 0.00 0.00 0.00 95 1012.1
20260502121047 47 360 1.0 3.0 0.00 0.00 0.00 95 1012.2
20260502120546 47 360 1.0 4.0 0.00 0.00 0.00 95 1012.1
20260502115547 47 360 2.0 4.0 0.00 0.00 0.00 94 1012.0
20260502115147 47 360 0.0 3.0 0.00 0.00 0.00 95 1012.1
20260502114545 47 360 0.0 4.0 0.00 0.00 0.00 95 1012.0
20260502114046 47 360 1.0 4.0 0.00 0.00 0.00 95 1012.1
20260502113545 47 360 1.0 4.0 0.00 0.00 0.00 95 1012.1
20260502113048 47 360 1.0 3.0 0.00 0.00 0.00 95 1012.0
20260502112545 46 360 0.0 2.0 0.00 0.00 0.00 95 1012.0
20260502112043 46 360 0.0 3.0 0.00 0.00 0.00 94 1011.9
20260502111543 46 360 1.0 4.0 0.00 0.00 0.00 94 1011.9
20260502111043 46 360 1.0 4.0 0.00 0.00 0.00 94 1011.8
20260502110543 46 360 1.0 4.0 0.00 0.00 0.00 94 1011.8
20260502110047 46 360 1.0 6.0 0.00 0.00 0.00 94 1011.8
20260502105542 46 360 3.0 5.0 0.00 0.00 0.00 94 1011.8
20260502105043 46 360 1.0 4.0 0.00 0.00 0.00 94 1011.7
20260502104544 46 360 1.0 4.0 0.00 0.00 0.00 94 1011.8
20260502104041 46 360 1.0 2.0 0.00 0.00 0.00 94 1011.8
20260502103541 46 360 1.0 3.0 0.00 0.00 0.00 94 1011.6
20260502103041 46 360 1.0 3.0 0.00 0.00 0.00 94 1011.7
20260502102541 46 360 1.0 3.0 0.00 0.00 0.00 94 1011.5
20260502102041 45 360 2.0 3.0 0.00 0.00 0.00 94 1011.4
20260502101551 45 360 1.0 2.0 0.00 0.00 0.00 94 1011.5
20260502101040 45 360 0.0 2.0 0.00 0.00 0.00 94 1011.3
20260502100540 46 360 0.0 2.0 0.00 0.00 0.00 94 1011.4
20260502091035 46 360 1.0 4.0 0.00 0.00 0.00 94 1011.2
20260502090537 46 360 1.0 4.0 0.00 0.00 0.00 94 1011.2
20260502071523 46 360 3.0 5.0 0.00 0.00 0.00 93 1011.8
20260502071023 46 360 3.0 8.0 0.00 0.00 0.00 93 1011.7
20260502070523 46 360 3.0 10.0 0.00 0.00 0.00 93 1011.9
20260502070037 46 360 4.0 10.0 0.00 0.00 0.00 93 1012.0
20260502065522 46 360 4.0 8.0 0.00 0.00 0.00 93 1012.1
20260502065024 46 360 3.0 8.0 0.00 0.00 0.00 93 1012.0
20260502064520 46 360 4.0 6.0 0.00 0.00 0.00 93 1012.0
20260502064019 46 360 2.0 5.0 0.00 0.00 0.00 93 1011.8
20260502063520 47 360 2.0 4.0 0.00 0.00 0.00 92 1011.8
20260502063023 47 360 0.0 6.0 0.00 0.00 0.00 92 1011.9
20260502062518 47 360 1.0 6.0 0.00 0.00 0.00 92 1012.0
20260502062016 47 360 0.0 3.0 0.00 0.00 0.00 92 1012.0
20260502061517 47 360 1.0 3.0 0.00 0.00 0.00 92 1012.0
20260502061016 47 360 1.0 3.0 0.00 0.00 0.00 92 1011.8
20260502060515 47 360 0.0 3.0 0.00 0.00 0.00 92 1011.9
20260502060027 47 360 1.0 3.0 0.00 0.00 0.00 92 1011.9
20260502055515 47 360 1.0 3.0 0.00 0.00 0.00 92 1011.9
20260502055018 47 360 0.0 3.0 0.00 0.00 0.00 92 1011.9
20260502054524 47 360 0.0 3.0 0.00 0.00 0.00 92 1012.0
20260502054013 47 360 1.0 3.0 0.00 0.00 0.00 91 1012.1
20260502053513 47 360 0.0 2.0 0.00 0.00 0.00 91 1012.0
20260502053013 48 360 0.0 2.0 0.00 0.00 0.00 91 1011.8
20260502052518 48 360 1.0 2.0 0.00 0.00 0.00 91 1011.8